Terminal Aerodrome Forecast
Issued by NWS Upton, NY

Home | Current Version | Previous Version | Text Only | Print | Product List | Glossary On
Versions: 1 2 3 4 5 6 7 8 9 10 11 12 13 14 15 16 17 18 19 20 21 22 23 24 25 26 27 28 29 30 31 32 33 34 35 36 37 38 39 40 41 42 43 44 45 46 47 48 49 50
000
FTUS41 KOKX 310830 AAT
TAFJFK
TAF AMD
KJFK 310830Z 3109/0112 36008KT P6SM FEW035
     FM311500 02006KT P6SM SKC
     FM311900 15006KT P6SM SKC
     FM010200 18006KT P6SM SCT040
     FM010800 22008KT P6SM BKN040=

USA.gov is the U.S. government's official web portal to all federal, state and local government web resources and services.